[[{"header":{"parameterUnit":"m.s-1","parameterCategory":1,"la1":30.2992,"la2":30.254,"lo1":-89.0895,"lo2":-89.0443,"dy":0.0025,"dx":0.0025,"nx":19,"ny":19,"refTime":"2026-03-14T21:00:00:Z","depth":0,"parameterNumber":2,"parameterNumberName":"U-component_of_WINDS"},"data":[0,0,0,-1.8832,-1.8832,-1.8839,-1.8839,-1.886,-1.886,0,0,0,0,0,0,0,0,0,0,0,-1.8835,-1.8836,-1.8832,-1.8832,-1.8839,-1.8839,-1.886,-1.886,0,0,0,0,0,0,0,0,0,0,0,-1.8835,-1.8836,-1.8836,-1.8832,-1.8839,-1.8839,-1.886,-1.8851,0,0,0,0,0,0,0,0,0,0,-1.8842,-1.885,-1.8836,-1.8836,-1.8832,-1.8839,-1.8839,-1.885,-1.8851,-1.8861,0,-1.8871,0,-1.8866,-1.8862,-1.8862,0,0,0,-1.8828,-1.8849,-1.8846,-1.8836,-1.8832,-1.8839,-1.8835,-1.885,-1.8852,-1.8863,-1.8871,-1.8872,-1.8866,-1.8862,-1.8863,-1.8935,-1.8936,0,0,-1.8827,-1.884,-1.8845,-1.8847,-1.8846,-1.8835,-1.8835,-1.8851,-1.8861,-1.8871,-1.8872,-1.8867,-1.8863,-1.8863,-1.8935,-1.8936,0,0,0,-1.8829,-1.884,-1.8836,-1.8847,-1.8847,-1.8835,-1.8836,-1.886,-1.8858,-1.8872,-1.8867,-1.8863,-1.8863,-1.8934,-1.8935,-1.8974,0,0,0,-1.8829,-1.8841,-1.8836,-1.8844,-1.8847,-1.8854,-1.8845,-1.8857,-1.8858,-1.8867,-1.8863,-1.8864,-1.8934,-1.8935,-1.8972,-1.8991,0,0,0,-1.8833,-1.8841,-1.8844,-1.8844,-1.8848,-1.8853,-1.8852,-1.8857,-1.8856,-1.8862,-1.8864,-1.8933,-1.8935,-1.897,-1.8987,-1.9015,0,0,0,-1.8841,-1.8878,-1.8845,-1.8885,-1.8848,-1.8877,-1.8851,-1.8872,-1.8883,-1.8863,-1.8934,-1.8935,-1.8969,-1.8985,-1.9012,-1.904,-1.9052,0,0,-1.8895,-1.8885,-1.8907,-1.8878,-1.8917,-1.8875,-1.892,-1.8917,-1.8907,-1.8927,-1.8928,-1.8973,-1.8987,-1.9014,-1.9118,-1.9128,0,0,0,-1.8929,-1.8945,-1.8953,-1.8963,-1.8963,-1.8965,-1.8955,-1.8954,-1.8971,-1.8919,-1.899,-1.8998,-1.9013,-1.9026,-1.9034,-1.9047,-1.8941,-1.8941,-1.8941,-1.9022,-1.9007,-1.9044,-1.9031,-1.9042,-1.9032,-1.904,-1.9038,-1.9019,-1.9036,-1.9042,-1.9107,-1.9122,-1.9128,-1.9142,-1.9055,-1.9055,-1.9055,-1.9055,-1.9099,-1.9121,-1.9096,-1.9123,-1.9108,-1.9131,-1.9124,-1.9111,-1.913,-1.91,-1.9113,-1.9082,-1.914,-1.9151,-1.9058,-1.9058,-1.9057,-1.9057,-1.9057,-1.9159,-1.9166,-1.9166,-1.9182,-1.9196,-1.9182,-1.9203,-1.9188,-1.9175,-1.9187,-1.9193,-1.9192,-1.919,-1.9191,-1.9191,-1.9192,-1.9192,-1.9192,-1.9192,-1.922,-1.9218,-1.9238,-1.9243,-1.9249,-1.9256,-1.9249,-1.9255,-1.9258,-1.9246,-1.9246,-1.9226,-1.9148,-1.9129,-1.9196,-1.9195,-1.9195,-1.9194,-1.9194,-1.9304,-1.9283,-1.9313,-1.932,-1.9326,-1.9342,-1.9324,-1.9339,-1.9342,-1.9353,-1.9332,-1.9276,-1.9265,-1.9258,-1.9242,-1.9334,-1.9334,-1.9334,-1.9334,-1.9354,-1.9348,-1.9376,-1.9388,-1.9398,-1.9386,-1.9422,-1.9418,-1.9411,-1.9412,-1.9397,-1.9375,-1.9368,-1.9361,-1.9352,-1.9337,-1.9451,-1.9451,-1.9451,-1.9406,-1.94,-1.9432,-1.9425,-1.943,-1.9434,-1.9468,-1.9485,-1.9472,-1.9456,-1.9414,-1.9409,-1.9373,-1.9361,-1.9343,-1.9329,-1.9301,0,0]},{"header":{"parameterUnit":"m.s-1","parameterCategory":1,"la1":30.2992,"la2":30.254,"lo1":-89.0895,"lo2":-89.0443,"dy":0.0025,"dx":0.0025,"nx":19,"ny":19,"refTime":"2026-03-14T21:00:00:Z","depth":0,"parameterNumber":3,"parameterNumberName":"V-component_of_WINDS"},"data":[0,0,0,1.4058,1.4058,1.4054,1.4054,1.4023,1.4023,0,0,0,0,0,0,0,0,0,0,0,1.4046,1.4046,1.4058,1.4058,1.4054,1.4054,1.4023,1.4023,0,0,0,0,0,0,0,0,0,0,0,1.4047,1.4046,1.4045,1.4058,1.4054,1.4054,1.4023,1.4035,0,0,0,0,0,0,0,0,0,0,1.4043,1.402,1.4046,1.4045,1.4058,1.4054,1.4054,1.4036,1.4034,1.4015,0,1.3996,0,1.4009,1.4019,1.4019,0,0,0,1.4067,1.4021,1.4032,1.4045,1.4058,1.4054,1.4058,1.4035,1.4033,1.4013,1.3996,1.3996,1.4009,1.4019,1.4019,1.3882,1.3881,0,0,1.4067,1.4038,1.4034,1.403,1.4032,1.4058,1.4058,1.4035,1.4014,1.3996,1.3995,1.4008,1.4019,1.4018,1.3883,1.3882,0,0,0,1.4062,1.4037,1.405,1.4031,1.4032,1.4058,1.4058,1.4015,1.4021,1.3995,1.4008,1.4018,1.4018,1.3884,1.3882,1.38,0,0,0,1.4062,1.4034,1.4049,1.4031,1.4032,1.4024,1.4037,1.4023,1.4021,1.4008,1.4018,1.4017,1.3885,1.3883,1.3805,1.3765,0,0,0,1.4051,1.4033,1.4028,1.403,1.4027,1.4025,1.403,1.4023,1.4028,1.4019,1.4017,1.3886,1.3884,1.3809,1.3772,1.3719,0,0,0,1.403,1.3954,1.4027,1.3947,1.4027,1.3975,1.4031,1.3994,1.3976,1.4018,1.3885,1.3883,1.3811,1.3777,1.3724,1.3668,1.3643,0,0,1.3918,1.394,1.3896,1.396,1.3888,1.3978,1.3894,1.3905,1.393,1.3896,1.3893,1.3803,1.3773,1.372,1.3515,1.3494,0,0,0,1.385,1.3818,1.3805,1.3788,1.3797,1.38,1.3828,1.3832,1.3805,1.3907,1.3772,1.3755,1.3725,1.37,1.3682,1.3658,1.387,1.3871,1.3871,1.3647,1.3686,1.3615,1.3653,1.3636,1.3666,1.3655,1.3666,1.3709,1.3676,1.3665,1.3536,1.3505,1.3492,1.3466,1.3641,1.3641,1.364,1.364,1.3485,1.3444,1.3506,1.3458,1.3499,1.3459,1.3486,1.3518,1.3485,1.3547,1.3523,1.3585,1.3469,1.3448,1.3634,1.3635,1.3636,1.3637,1.3637,1.3354,1.3341,1.335,1.333,1.331,1.3352,1.3318,1.3357,1.3393,1.3369,1.3361,1.3362,1.3366,1.3363,1.3363,1.3362,1.3362,1.3362,1.3361,1.3213,1.3226,1.3194,1.3198,1.3192,1.319,1.3221,1.3216,1.322,1.3251,1.3251,1.3295,1.3452,1.3489,1.3354,1.3356,1.3356,1.3357,1.3358,1.303,1.3078,1.3028,1.3023,1.3031,1.3008,1.306,1.3046,1.3048,1.303,1.3081,1.3192,1.3216,1.323,1.326,1.3075,1.3075,1.3075,1.3075,1.2917,1.2935,1.2893,1.2882,1.2876,1.2918,1.2859,1.2882,1.2914,1.2917,1.295,1.2995,1.3008,1.3025,1.3043,1.3072,1.2843,1.2843,1.2842,1.2805,1.2824,1.2767,1.2801,1.2811,1.2817,1.2763,1.2746,1.2792,1.2834,1.292,1.293,1.3003,1.3025,1.3065,1.3093,1.3147,0,0]}]]